Back to catalog

STARLINK-37935

AliveCommunicationsSSO
NORAD 69562·PAYLOAD·🇺🇸 United States

Launched Jun 15, 2026 from Vandenberg Space Force Base

Loading…

Next Passes (next 24 hours)

TLE

FreshSource: CelesTrak SupGP

Epoch: Sep 14, 2026, 15:45 UTC

1 69562C 26135S   26257.65673611 -.00046641  00000+0 -14477-2 0  2576
2 69562  97.2837 285.4608 0001188 114.1646   3.7085 15.33466147    14

Track STARLINK-37935 in real time with AllMySat

Download on the App Store